| Date | Temp | Humidity | Rainfall | Dew Point | Wind Direction | Wind Speed | Wind Pressure | Condition | Visibility |
|---|---|---|---|---|---|---|---|---|---|
| 2025-04-03 23:00:27 | 27 | 91 | 0.00 | 25 | 090 | 11.4 | 1011 | Cloudy | 10 KM |
| 2025-04-03 21:58:39 | 28 | 91 | 0.00 | 26 | 050 | 11.4 | 1011 | Showers | 10 KM |
| 2025-04-03 20:59:06 | 28 | 85 | 0.0 | 26 | 020 | 10 | 1011 | Cloudy | 10 km |
| 2025-04-03 20:03:46 | 28 | 85 | 0.0 | 26 | 010 | 8 | 1010 | Lightning | 10 km |
| 2025-04-03 19:02:51 | 28 | 86 | 0.0 | 26 | 010 | 12 | 1009 | Cloudy | 10 km |
| 2025-04-03 18:02:13 | 29 | 80 | 0.0 | 25 | 360 | 12 | 1009 | Thunderstorm | 10 km |
| 2025-04-03 17:01:27 | 29 | 77 | 0 | 24 | 310 | 11.4 | 1009 | Thundershowers | 10 KM |
| 2025-04-03 16:01:02 | 29 | 78 | 0 | 25 | 340 | 15.2 | 1008 | Thunderstorm | 10 KM |
| 2025-04-03 15:01:35 | 30 | 74 | 0.0 | 25 | 330 | 18 | 1009 | Thunderstorm | 10 km |
| 2025-04-03 14:02:08 | 31 | 74 | 0 | 26 | 350 | 17.1 | 1009 | Partly Cloudy (Day) | 20 KM |
| 2025-04-03 12:57:55 | 31 | 73 | 0.00 | 25 | 340 | 11.4 | 1011 | Cloudy | 20 KM |
| 2025-04-03 12:00:23 | 30 | 77 | 0.1 | 26 | 320 | 13.33 | 1011 | Showers | 10 KM |
| 2025-04-03 10:59:51 | 30 | 80 | 0.00 | 26 | 350 | 9.5 | 1012 | Cloudy | 20 KM |
| 2025-04-03 09:59:50 | 30 | 75 | 0.00 | 25 | 150 | 5.7 | 1012 | Partly Cloudy (Day) | 20 km |
| 2025-04-03 09:01:34 | 29 | 85 | 0.00 | 26 | 160 | 3.8 | 1012 | Partly Cloudy (Day) | 20 km |
| 2025-04-03 08:03:21 | 27 | 91 | 25 | 200 | 5.7 | 1012 | Partly Cloudy (Day) | 15 KM | |
| 2025-04-03 06:58:54 | 26 | 98 | 26 | 200 | 3.8 | 1011 | Partly Cloudy (Day) | 15 KM | |
| 2025-04-03 05:59:59 | 26 | 98 | 25 | 220 | 1.9 | 1010 | Partly Cloudy (Day) | 10 KM | |
| 2025-04-03 05:00:20 | 26 | 98 | 25 | 170 | 3.8 | 1010 | Rain | 10 KM | |
| 2025-04-03 04:01:07 | 26 | 98 | 25 | 230 | 3.8 | 1009 | Night Shower | 9 KM | |
| 2025-04-03 03:05:41 | 26 | 94 | 25 | 180 | 22.8 | 1010 | Night Shower | 4 KM | |
| 2025-04-03 02:00:04 | 27 | 91 | 26 | 050 | 3.8 | 1010 | Night Shower | 10 KM | |
| 2025-04-03 00:57:14 | 28 | 86 | 25 | 040 | 3.8 | 1011 | Partly Cloudy (Night) | 10 KM | |
| 2025-04-02 23:56:35 | 28 | 85 | 25 | 040 | 9.5 | 1011 | Partly Cloudy (Night) | 10 KM | |
| 2025-04-02 22:57:14 | 28 | 83 | 25 | 040 | 9.5 | 1011 | Partly Cloudy (Night) | 10 KM |